Regional Weather Roundup
Issued by NWS

Home | Current Version | Previous Version | Text Only | Print | Product List | Glossary Off
Versions: 1 2 3 4 5 6 7 8 9 10 11 12 13 14 15 16 17 18 19 20 21 22 23 24 25 26 27 28 29 30 31 32 33 34 35 36 37 38 39 40 41 42 43 44 45 46

000
ASUS45 KBOU 210210
RWRCO

WEATHER ROUNDUP FOR COLORADO
NATIONAL WEATHER SERVICE PUEBLO CO
800 PM MDT FRI APR 20 2018

NOTE: "FAIR" INDICATES FEW OR NO CLOUDS BELOW 12000 FEET WITH NO
SIGNIFICANT WEATHER AND/OR OBSTRUCTIONS TO VISIBILITY.

COZ001>005-013-030-031-210300-
...NORTHWEST COLORADO...

CITY           SKY/WX    TMP DP  RH WIND       PRES   REMARKS
CRAIG          LGT RAIN  38  35  89 SW7       29.99R
HAYDEN         CLOUDY    36  33  89 W7        29.99R
MEEKER         MIX PCPN  34  32  92 CALM      30.02S
RABBIT EARS PA NOT AVBL
STEAMBOAT SPGS CLOUDY    33  33  99 CALM      29.98S
WALDEN         CLOUDY    34  32  93 NW6       29.98R VSB 1   WCI  29
$$

COZ006>008-011-210300-
...WEST CENTRAL VALLEYS...

CITY           SKY/WX    TMP DP  RH WIND       PRES   REMARKS
GRAND JUNCTION RAIN      43  37  79 E6        30.03R
MONTROSE       CLOUDY    46  20  35 NW12      30.04R
EAGLE          CLOUDY    38  28  67 W9        30.03R
RIFLE          LGT RAIN  36  35  96 SW3       30.04S
DELTA          NOT AVBL
NUCLA          CLOUDY    48  18  29 NW13G20   30.05R
$$

COZ017>023-064>068-210300-
...SOUTHWEST COLORADO...

CITY           SKY/WX    TMP DP  RH WIND       PRES   REMARKS
DURANGO        PTCLDY    42  21  43 NW10      30.00R
CORTEZ         CLOUDY    43  30  60 W8        30.04R
PAGOSA SPRINGS FAIR      38  17  42 CALM      30.01R
TELLURIDE      LGT SNOW  30  26  86 W8        30.07R WCI  22
WOLF CREEK PAS MOCLDY    18  14  86 SW8       30.09S WCI   7
$$

COZ009-010-012-014-032>034-037-058>063-210300-
...CENTRAL COLORADO...

CITY           SKY/WX    TMP DP  RH WIND       PRES   REMARKS
ASPEN          LGT SNOW  31  29  92 NW3       30.01R FOG
BUENA VISTA    CLOUDY    36  21  54 W14G23    29.96R
COPPER MTN     NOT AVBL
BERTHOUD PASS  CLOUDY    21  10  63 S6        30.01S WCI  14
COTTONWOOD PAS CLOUDY    32  23  69 W15G22    29.98S WCI  22
GUNNISON       CLOUDY    37  20  50 VRB3      30.02R
KREMMLING      LGT RAIN  41  34  75 W13G20    29.98R
LEADVILLE      CLOUDY    26  20  77 NW7       29.98R WCI  18
MONARCH PASS   LGT SNOW  18  14  86 W38G45    30.10S VSB 3/4 WCI  -4
SALIDA         FAIR      37  28  69 SW7       30.04R
SUNLIGHT       CLOUDY    21  19  93 SW9G17    30.06R WCI  11
WILKERSON PASS LGT SNOW N/A N/A N/A CALM      30.02R VSB 1
$$

COZ069>075-210300-
...SAN LUIS VALLEY/SANGRE DE CRISTO MOUNTAINS...

CITY           SKY/WX    TMP DP  RH WIND       PRES   REMARKS
ALAMOSA        MOCLDY    36  25  64 N10       30.00R
DEL NORTE      CLOUDY    32  25  75 W7        30.02R WCI  26
LA VETA PASS   CLOUDY    27  16  63 SW14G28   30.09R WCI  15
SAGUACHE       NOT AVBL
$$

COZ035-036-038>040-210300-
...NORTHERN COLORADO FRONT RANGE...

CITY           SKY/WX    TMP DP  RH WIND       PRES   REMARKS
DENVER INTL AP CLOUDY    38  33  82 SE18      29.98R
DMNS CITY PARK NOT AVBL
AURORA         CLOUDY    37  36  96 SE17      29.99R
FRONT RANGE AP CLOUDY    39  36  87 SE28      30.02R
ERIE MUNI ARPT CLOUDY    44  33  66 SE10      30.02S
BOULDER MUN AP CLOUDY    43  37  81 SE7       29.96R
CENTENNIAL     CLOUDY    37  35  92 S20       29.98R
BROOMFIELD     MOCLDY    43  37  81 E9        29.98R
LOVELAND       LGT RAIN  38  34  85 E17       30.03R
LONGMONT       CLOUDY    45  37  73 E8        30.00R
$$

COZ041-046-047-076>085-087-088-210300-
...PIKES PEAK/PALMER DIVIDE AND SOUTHERN FOOTHILLS...

CITY           SKY/WX    TMP DP  RH WIND       PRES   REMARKS
COLO. SPRINGS  LGTSLEET  34  34 100 SE14      30.03R VSB 1/4 WCI  25
A. F. ACADEMY  LGT SNOW  33  33  99 SE7       30.01R FOG     WCI  27
SCHRIEVER AFB  NOT AVBL
CHEYENNE MTN   NOT AVBL
ELLICOTT       CLOUDY   N/A N/A N/A SE17G26   30.00R
FALCON         HVY SNOW  32  32 100 SE18      30.02R VSB<1/4 WCI  20
FORT CARSON    HAIL      34  34  98 N3        30.02R VSB 1/4
LIMON          CLOUDY    33  33 100 SE22G30   30.05R WCI  21
MONUMENT HILL  FOG       32  32 100 SE18      30.01R VSB 1/4 WCI  20
CANON CITY     LGT SNOW  34  34 100 SW3       30.02R
WALSENBURG     MOCLDY    45  34  65 S10       29.95R
TRINIDAD       PTCLDY    38  34  85 E10       29.96R
$$

COZ042>045-048>051-090-091-210300-
...NORTHEAST COLORADO...

CITY           SKY/WX    TMP DP  RH WIND       PRES   REMARKS
GREELEY ARPT   LGT RAIN  38  34  85 E14G24    30.05R
AKRON          CLOUDY    35  35 100 SE20G28   30.07F WCI  24
BURLINGTON     LGT RAIN  38  37  97 E15       30.10S
WRAY           DRIZZLE   39  39 100 E13       30.14R
YUMA           NOT AVBL
STERLING       NOT AVBL
HOLYOKE        LGT RAIN  41  37  87 SE14      30.15R
FORT MORGAN    DRIZZLE   37  33  85 MISG      30.08F
$$

COZ086-089-092>099-210300-
...SOUTHEAST COLORADO...

CITY           SKY/WX    TMP DP  RH WIND       PRES   REMARKS
PUEBLO         CLOUDY    43  36  76 E25G33    29.97R
LA JUNTA       CLOUDY    42  38  85 E22       30.01R
LAMAR          LGT RAIN  41  38  89 E18       30.04F
SPRINGFIELD      N/A     40  40 100 E15G21    30.03S
$$





USA.gov is the U.S. government's official web portal to all federal, state and local government web resources and services.